Time,TemperatureF,DewpointF,PressureIn,WindDirection,WindDirectionDegrees,WindSpeedMPH,WindSpeedGustMPH,Humidity,HourlyPrecipIn,Conditions,Clouds,dailyrainin,SolarRadiationWatts/m^2,SoftwareType,DateUTC
2013-01-03 00:03:00,37.0,36.0,-100.00,SSW,194,3.0,6.0,96,0.00,,,0.04,0.000000,,2013-01-03 05:03:00,
2013-01-03 00:33:00,37.0,36.0,-100.00,SSW,209,3.0,6.0,96,0.00,,,0.03,0.000000,,2013-01-03 05:33:00,
2013-01-03 00:42:00,37.0,36.0,-100.00,SSW,209,3.0,6.0,96,0.00,,,0.03,0.000000,,2013-01-03 05:42:00,
2013-01-03 00:53:00,37.0,36.0,-100.00,SSW,209,3.0,6.0,96,0.00,,,0.03,0.000000,,2013-01-03 05:53:00,
2013-01-03 01:03:00,37.0,36.0,-100.00,SSW,209,3.0,6.0,96,0.00,,,0.03,0.000000,,2013-01-03 06:03:00,
2013-01-03 01:33:00,37.0,36.0,-100.00,SE,126,2.0,6.0,97,0.00,,,0.00,0.000000,,2013-01-03 06:33:00,
2013-01-03 01:43:00,37.0,36.0,-100.00,SE,126,2.0,6.0,97,0.00,,,0.00,0.000000,,2013-01-03 06:43:00,
2013-01-03 01:53:00,37.0,36.0,-100.00,SE,126,2.0,6.0,97,0.00,,,0.00,0.000000,,2013-01-03 06:53:00,
2013-01-03 02:02:00,37.0,36.0,-100.00,SE,126,2.0,6.0,97,0.00,,,0.00,0.000000,,2013-01-03 07:02:00,
2013-01-03 02:33:00,37.0,36.0,-100.00,South,175,0.0,4.0,97,0.00,,,0.00,0.000000,,2013-01-03 07:33:00,
2013-01-03 02:43:00,37.0,36.0,-100.00,South,175,0.0,4.0,97,0.00,,,0.00,0.000000,,2013-01-03 07:43:00,
2013-01-03 02:53:00,37.0,36.0,-100.00,South,175,0.0,4.0,97,0.00,,,0.00,0.000000,,2013-01-03 07:53:00,
2013-01-03 03:02:00,37.0,36.0,-100.00,South,175,0.0,4.0,97,0.00,,,0.00,0.000000,,2013-01-03 08:02:00,
2013-01-03 03:33:00,37.0,36.0,-100.00,SSW,210,3.0,6.0,98,0.00,,,0.00,0.000000,,2013-01-03 08:33:00,
2013-01-03 03:43:00,37.0,36.0,-100.00,SSW,210,3.0,6.0,98,0.00,,,0.00,0.000000,,2013-01-03 08:43:00,
2013-01-03 03:53:00,37.0,36.0,-100.00,SSW,210,3.0,6.0,98,0.00,,,0.00,0.000000,,2013-01-03 08:53:00,
2013-01-03 04:03:00,37.0,36.0,-100.00,SSW,210,3.0,6.0,98,0.00,,,0.00,0.000000,,2013-01-03 09:03:00,
2013-01-03 04:23:00,37.0,36.0,-100.00,NNW,332,0.0,6.0,98,0.00,,,0.00,0.000000,,2013-01-03 09:23:00,
2013-01-03 04:34:00,37.0,36.0,-100.00,NNW,332,0.0,6.0,98,0.00,,,0.00,0.000000,,2013-01-03 09:34:00,
2013-01-03 04:43:00,37.0,36.0,-100.00,NNW,332,0.0,6.0,98,0.00,,,0.00,0.000000,,2013-01-03 09:43:00,
2013-01-03 04:53:00,37.0,36.0,-100.00,NNW,332,0.0,6.0,98,0.00,,,0.00,0.000000,,2013-01-03 09:53:00,
2013-01-03 05:02:00,37.0,36.0,-100.00,NNW,332,0.0,6.0,98,0.00,,,0.00,0.000000,,2013-01-03 10:02:00,
2013-01-03 05:33:00,37.0,36.0,-100.00,NE,37,2.0,4.0,98,0.00,,,0.00,0.000000,,2013-01-03 10:33:00,
2013-01-03 05:43:00,37.0,36.0,-100.00,NE,37,2.0,4.0,98,0.00,,,0.00,0.000000,,2013-01-03 10:43:00,
2013-01-03 05:53:00,37.0,36.0,-100.00,NE,37,2.0,4.0,98,0.00,,,0.00,0.000000,,2013-01-03 10:53:00,
2013-01-03 06:02:00,37.0,36.0,-100.00,NE,37,2.0,4.0,98,0.00,,,0.00,0.000000,,2013-01-03 11:02:00,
2013-01-03 06:33:00,37.0,36.0,-100.00,SE,130,2.0,4.0,98,0.00,,,0.00,0.000000,,2013-01-03 11:33:00,
2013-01-03 06:43:00,37.0,36.0,-100.00,SE,130,2.0,4.0,98,0.00,,,0.00,0.000000,,2013-01-03 11:43:00,
2013-01-03 06:53:00,37.0,36.0,-100.00,SE,130,2.0,4.0,98,0.00,,,0.00,0.000000,,2013-01-03 11:53:00,
2013-01-03 07:03:00,37.0,36.0,-100.00,SE,130,2.0,4.0,98,0.00,,,0.00,0.000000,,2013-01-03 12:03:00,
2013-01-03 07:33:00,37.0,36.0,-100.00,ENE,66,0.0,4.0,98,0.00,,,0.00,0.000000,,2013-01-03 12:33:00,
2013-01-03 07:43:00,37.0,36.0,-100.00,ENE,66,0.0,4.0,98,0.00,,,0.00,0.000000,,2013-01-03 12:43:00,
2013-01-03 07:53:00,37.0,36.0,-100.00,ENE,66,0.0,4.0,98,0.00,,,0.00,0.000000,,2013-01-03 12:53:00,
2013-01-03 08:02:00,37.0,36.0,-100.00,ENE,66,0.0,4.0,98,0.00,,,0.00,0.000000,,2013-01-03 13:02:00,
2013-01-03 08:33:00,36.0,36.0,-100.00,SE,142,0.0,3.0,99,0.00,,,0.00,2.000000,,2013-01-03 13:33:00,
2013-01-03 08:43:00,36.0,36.0,-100.00,SE,142,0.0,3.0,99,0.00,,,0.00,2.000000,,2013-01-03 13:43:00,
2013-01-03 08:53:00,36.0,36.0,-100.00,SE,142,0.0,3.0,99,0.00,,,0.00,2.000000,,2013-01-03 13:53:00,
2013-01-03 09:03:00,36.0,36.0,-100.00,SE,142,0.0,3.0,99,0.00,,,0.00,2.000000,,2013-01-03 14:03:00,
2013-01-03 09:33:00,37.0,36.0,-100.00,WSW,242,2.0,3.0,98,0.00,,,0.00,37.000000,,2013-01-03 14:33:00,
2013-01-03 09:43:00,37.0,36.0,-100.00,WSW,242,2.0,3.0,98,0.00,,,0.00,37.000000,,2013-01-03 14:43:00,
2013-01-03 09:53:00,37.0,36.0,-100.00,WSW,242,2.0,3.0,98,0.00,,,0.00,37.000000,,2013-01-03 14:53:00,
2013-01-03 10:03:00,37.0,36.0,-100.00,WSW,242,2.0,3.0,98,0.00,,,0.00,37.000000,,2013-01-03 15:03:00,
2013-01-03 10:34:00,37.0,36.0,-100.00,ENE,78,2.0,5.0,97,0.00,,,0.00,59.000000,,2013-01-03 15:34:00,
2013-01-03 10:43:00,37.0,36.0,-100.00,ENE,78,2.0,5.0,97,0.00,,,0.00,59.000000,,2013-01-03 15:43:00,
2013-01-03 10:53:00,37.0,36.0,-100.00,ENE,78,2.0,5.0,97,0.00,,,0.00,59.000000,,2013-01-03 15:53:00,
2013-01-03 11:03:00,37.0,36.0,-100.00,ENE,78,2.0,5.0,97,0.00,,,0.00,59.000000,,2013-01-03 16:03:00,
2013-01-03 11:34:00,38.0,35.0,-100.00,SSE,156,3.0,5.0,90,0.00,,,0.00,96.000000,,2013-01-03 16:34:00,
2013-01-03 11:43:00,38.0,35.0,-100.00,SSE,156,3.0,5.0,90,0.00,,,0.00,96.000000,,2013-01-03 16:43:00,
2013-01-03 11:53:00,38.0,35.0,-100.00,SSE,156,3.0,5.0,90,0.00,,,0.00,96.000000,,2013-01-03 16:53:00,
2013-01-03 12:03:00,38.0,35.0,-100.00,SSE,156,3.0,5.0,90,0.00,,,0.00,96.000000,,2013-01-03 17:03:00,
2013-01-03 12:33:00,36.0,34.0,-100.00,South,188,2.0,5.0,92,0.00,,,0.00,65.000000,,2013-01-03 17:33:00,
2013-01-03 12:43:00,36.0,34.0,-100.00,South,188,2.0,5.0,92,0.00,,,0.00,65.000000,,2013-01-03 17:43:00,
2013-01-03 12:53:00,36.0,34.0,-100.00,South,188,2.0,5.0,92,0.00,,,0.00,65.000000,,2013-01-03 17:53:00,
2013-01-03 13:03:00,36.0,34.0,-100.00,South,188,2.0,5.0,92,0.00,,,0.00,65.000000,,2013-01-03 18:03:00,
2013-01-03 13:23:00,39.0,35.0,-100.00,South,191,3.0,5.0,85,0.00,,,0.00,135.000000,,2013-01-03 18:23:00,
2013-01-03 13:33:00,39.0,35.0,-100.00,South,191,3.0,5.0,85,0.00,,,0.00,135.000000,,2013-01-03 18:33:00,
2013-01-03 13:43:00,39.0,35.0,-100.00,South,191,3.0,5.0,85,0.00,,,0.00,135.000000,,2013-01-03 18:43:00,
2013-01-03 13:53:00,39.0,35.0,-100.00,South,191,3.0,5.0,85,0.00,,,0.00,135.000000,,2013-01-03 18:53:00,
2013-01-03 14:03:00,39.0,35.0,-100.00,South,191,3.0,5.0,85,0.00,,,0.00,135.000000,,2013-01-03 19:03:00,
2013-01-03 14:57:00,38.0,35.0,-100.00,NW,321,4.0,7.0,89,0.00,,,0.00,120.000000,,2013-01-03 19:57:00,
2013-01-03 15:03:00,38.0,35.0,-100.00,NW,321,4.0,7.0,89,0.00,,,0.00,120.000000,,2013-01-03 20:03:00,
2013-01-03 15:33:00,36.0,30.0,-100.00,NNW,333,5.0,12.0,78,0.00,,,0.00,174.000000,,2013-01-03 20:33:00,
2013-01-03 15:43:00,36.0,30.0,-100.00,NNW,333,5.0,12.0,78,0.00,,,0.00,174.000000,,2013-01-03 20:43:00,
2013-01-03 15:53:00,36.0,30.0,-100.00,NNW,333,5.0,12.0,78,0.00,,,0.00,174.000000,,2013-01-03 20:53:00,
2013-01-03 16:03:00,36.0,30.0,-100.00,NNW,333,5.0,12.0,78,0.00,,,0.00,174.000000,,2013-01-03 21:03:00,
2013-01-03 16:38:00,36.0,28.0,-100.00,North,7,5.0,12.0,71,0.00,,,0.00,139.000000,,2013-01-03 21:38:00,
2013-01-03 16:50:00,36.0,28.0,-100.00,North,7,5.0,12.0,71,0.00,,,0.00,139.000000,,2013-01-03 21:50:00,
2013-01-03 17:03:00,36.0,28.0,-100.00,North,7,5.0,12.0,71,0.00,,,0.00,139.000000,,2013-01-03 22:03:00,
2013-01-03 17:33:00,34.0,27.0,-100.00,NNE,20,4.0,10.0,75,0.00,,,0.00,71.000000,,2013-01-03 22:33:00,
2013-01-03 17:43:00,34.0,27.0,-100.00,NNE,20,4.0,10.0,75,0.00,,,0.00,71.000000,,2013-01-03 22:43:00,
2013-01-03 17:53:00,34.0,27.0,-100.00,NNE,20,4.0,10.0,75,0.00,,,0.00,71.000000,,2013-01-03 22:53:00,
2013-01-03 18:03:00,34.0,27.0,-100.00,NNE,20,4.0,10.0,75,0.00,,,0.00,71.000000,,2013-01-03 23:03:00,
2013-01-03 18:33:00,32.0,26.0,-100.00,NW,308,4.0,10.0,78,0.00,,,0.00,5.000000,,2013-01-03 23:33:00,
2013-01-03 18:43:00,32.0,26.0,-100.00,NW,308,4.0,10.0,78,0.00,,,0.00,5.000000,,2013-01-03 23:43:00,
2013-01-03 18:53:00,32.0,26.0,-100.00,NW,308,4.0,10.0,78,0.00,,,0.00,5.000000,,2013-01-03 23:53:00,
2013-01-03 19:03:00,32.0,26.0,-100.00,NW,308,4.0,10.0,78,0.00,,,0.00,5.000000,,2013-01-04 00:03:00,
2013-01-03 19:23:00,29.0,23.0,-100.00,NE,52,2.0,8.0,78,0.00,,,0.00,0.000000,,2013-01-04 00:23:00,
2013-01-03 19:33:00,29.0,23.0,-100.00,NE,52,2.0,8.0,78,0.00,,,0.00,0.000000,,2013-01-04 00:33:00,
2013-01-03 19:42:00,29.0,23.0,-100.00,NE,52,2.0,8.0,78,0.00,,,0.00,0.000000,,2013-01-04 00:42:00,
2013-01-03 19:53:00,29.0,23.0,-100.00,NE,52,2.0,8.0,78,0.00,,,0.00,0.000000,,2013-01-04 00:53:00,
2013-01-03 20:02:00,29.0,23.0,-100.00,NE,52,2.0,8.0,78,0.00,,,0.00,0.000000,,2013-01-04 01:02:00,
2013-01-03 20:33:00,30.0,18.0,-100.00,NNE,29,6.0,19.0,60,0.00,,,0.00,0.000000,,2013-01-04 01:33:00,
2013-01-03 20:42:00,30.0,18.0,-100.00,NNE,29,6.0,19.0,60,0.00,,,0.00,0.000000,,2013-01-04 01:42:00,
2013-01-03 20:53:00,30.0,18.0,-100.00,NNE,29,6.0,19.0,60,0.00,,,0.00,0.000000,,2013-01-04 01:53:00,
2013-01-03 21:02:00,30.0,18.0,-100.00,NNE,29,6.0,19.0,60,0.00,,,0.00,0.000000,,2013-01-04 02:02:00,
2013-01-03 21:33:00,31.0,12.0,-100.00,NW,311,5.0,18.0,45,0.00,,,0.00,0.000000,,2013-01-04 02:33:00,
2013-01-03 21:42:00,31.0,12.0,-100.00,NW,311,5.0,18.0,45,0.00,,,0.00,0.000000,,2013-01-04 02:42:00,
2013-01-03 21:53:00,31.0,12.0,-100.00,NW,311,5.0,18.0,45,0.00,,,0.00,0.000000,,2013-01-04 02:53:00,
2013-01-03 22:03:00,31.0,12.0,-100.00,NW,311,5.0,18.0,45,0.00,,,0.00,0.000000,,2013-01-04 03:03:00,
2013-01-03 22:33:00,30.0,10.0,-100.00,North,357,4.0,16.0,43,0.00,,,0.00,0.000000,,2013-01-04 03:33:00,
2013-01-03 22:43:00,30.0,10.0,-100.00,North,357,4.0,16.0,43,0.00,,,0.00,0.000000,,2013-01-04 03:43:00,
2013-01-03 22:53:00,30.0,10.0,-100.00,North,357,4.0,16.0,43,0.00,,,0.00,0.000000,,2013-01-04 03:53:00,
2013-01-03 23:02:00,30.0,10.0,-100.00,North,357,4.0,16.0,43,0.00,,,0.00,0.000000,,2013-01-04 04:02:00,
2013-01-03 23:32:00,29.0,9.0,-100.00,ENE,64,5.0,12.0,43,0.00,,,0.00,0.000000,,2013-01-04 04:32:00,
2013-01-03 23:42:00,29.0,9.0,-100.00,ENE,64,5.0,12.0,43,0.00,,,0.00,0.000000,,2013-01-04 04:42:00,
2013-01-03 23:53:00,29.0,9.0,-100.00,ENE,64,5.0,12.0,43,0.00,,,0.00,0.000000,,2013-01-04 04:53:00,